Simultaneous Nadir Overpasses (SNOs) Predictions

Prediction of SNOs between GOES-17 and TERRA Satellite Orbit:

Table of predicted SNOs for the next 14.0 days since TLE Epoch: 3/14/2025
Index Date Time (GOES-17) GOES-17 Lat,Lon TERRA Lat,Lon Distance(km) Time Diff (sec)
1 03/15/2025 16:18:00 0.03,-104.42 -0.35,-102.63 203.56 80
2 03/16/2025 04:37:41 -0.03,-104.39 -0.67,-107.41 344.05 80
3 03/18/2025 04:21:32 -0.03,-104.39 0.28,-102.88 171.22 80
4 03/18/2025 16:41:06 0.03,-104.42 0.68,-107.64 366.05 80
5 03/20/2025 16:19:36 0.02,-104.42 -0.25,-103.11 149.11 80
6 03/21/2025 04:39:17 -0.02,-104.38 -0.74,-107.90 398.73 80
7 03/23/2025 04:23:06 -0.02,-104.38 0.18,-103.35 116.55 80
8 03/23/2025 16:42:39 0.02,-104.41 0.82,-108.11 420.51 80
9 03/25/2025 16:21:08 0.02,-104.40 -0.16,-103.57 95.01 80
10 03/26/2025 04:40:48 -0.01,-104.37 -0.83,-108.36 452.92 80
11 03/28/2025 04:24:36 -0.01,-104.37 0.13,-103.81 63.32 80
12 03/28/2025 16:44:08 0.01,-104.40 0.89,-108.56 473.32 80
